KT5AL Weather Reports


Display with metric or nautical units.
time (UTC)temp
F
wind
direction
speed
MPH
gust
MPH
rain 1hr
in
rain 24hr
in
rain mn
in
humidity
%
barometer
mb
20260831121504 78 135 4.0 5.0 0.00 0.00 0.00 73 1015.1
20260831120507 78 157 5.0 6.0 0.00 0.00 0.00 73 1015.1
20260831120003 78 180 6.0 7.0 0.00 0.00 0.00 72 1015.1
20260831114503 79 202 2.0 3.0 0.00 0.00 0.00 70 1014.4
20260831113507 79 202 6.0 7.0 0.00 0.00 0.00 69 1014.4
20260831112504 79 202 8.0 9.0 0.00 0.00 0.00 69 1014.4
20260831111003 80 180 7.0 9.0 0.00 0.00 0.00 68 1014.4
20260831110504 80 202 8.0 11.0 0.00 0.00 0.00 68 1014.4
20260831105508 80 180 10.0 12.0 0.00 0.00 0.00 67 1014.1
20260831104506 80 202 8.0 10.0 0.00 0.00 0.00 67 1014.1
20260831104008 80 180 8.0 10.0 0.00 0.00 0.00 66 1014.1
20260831103503 80 180 8.0 9.0 0.00 0.00 0.00 66 1014.1
20260831103005 81 180 9.0 10.0 0.00 0.00 0.00 64 1014.1
20260831101505 81 202 8.0 10.0 0.00 0.00 0.00 64 1013.8
20260831100503 81 202 9.0 11.0 0.00 0.00 0.00 63 1013.8
20260831094006 82 180 10.0 13.0 0.00 0.00 0.00 61 1013.8
20260831092007 82 202 10.0 12.0 0.00 0.00 0.00 61 1013.4
20260831091504 82 202 9.0 11.0 0.00 0.00 0.00 62 1013.4
20260831090003 82 202 10.0 12.0 0.00 0.00 0.00 61 1013.1
20260831085505 82 202 11.0 12.0 0.00 0.00 0.00 61 1013.1
20260831085007 82 202 11.0 13.0 0.00 0.00 0.00 61 1013.1
20260831084508 82 180 10.0 12.0 0.00 0.00 0.00 60 1013.1
20260831083002 82 180 12.0 14.0 0.00 0.00 0.00 57 1013.1
20260831082504 82 202 13.0 15.0 0.00 0.00 0.00 56 1013.4
20260831081507 82 180 10.0 12.0 0.00 0.00 0.00 55 1013.4
20260831080007 83 202 10.0 13.0 0.00 0.00 0.00 53 1013.1
20260831073505 82 180 10.0 12.0 0.00 0.00 0.00 55 1013.1
20260831073007 82 180 9.0 11.0 0.00 0.00 0.00 55 1013.1
20260831070504 81 157 7.0 8.0 0.00 0.00 0.00 56 1013.4
20260831065005 81 157 5.0 7.0 0.00 0.00 0.00 56 1013.1
20260831064507 81 135 5.0 6.0 0.00 0.00 0.00 56 1013.4
20260831062503 81 112 7.0 8.0 0.00 0.00 0.00 56 1013.4
20260831054506 83 112 8.0 10.0 0.00 0.00 0.00 54 1013.1
20260831054009 83 112 7.0 9.0 0.00 0.00 0.00 52 1013.1
20260831053505 83 135 7.0 8.0 0.00 0.00 0.00 52 1013.1
20260831053006 83 135 6.0 7.0 0.00 0.00 0.00 52 1013.1
20260831051506 83 135 4.0 5.0 0.00 0.00 0.00 51 1013.1
20260831051008 83 135 4.0 5.0 0.00 0.00 0.00 51 1013.1
20260831050504 83 135 5.0 6.0 0.00 0.00 0.00 51 1012.7
20260831045508 84 157 4.0 5.0 0.00 0.00 0.00 50 1012.7
20260831045003 84 135 5.0 5.0 0.00 0.00 0.00 48 1012.7
20260831043503 85 157 4.0 5.0 0.00 0.00 0.00 47 1012.7
20260831043005 85 157 4.0 5.0 0.00 0.00 0.00 46 1012.7
20260831042003 85 157 4.0 5.0 0.00 0.00 0.00 46 1012.4
20260831040503 86 157 5.0 5.0 0.00 0.00 0.00 45 1012.4
20260831034006 87 157 4.0 5.0 0.00 0.00 0.00 42 1012.1
20260831033508 87 157 5.0 6.0 0.00 0.00 0.00 42 1011.7
20260831033049 87 157 4.0 5.0 0.00 0.00 0.00 42 1011.7
20260831032505 87 135 4.0 7.0 0.00 0.00 0.00 42 1011.7
20260831031503 87 135 4.0 6.0 0.00 0.00 0.00 41 1011.7
20260831031005 88 135 5.0 6.0 0.00 0.00 0.00 40 1011.7
20260831030507 88 157 4.0 7.0 0.00 0.00 0.00 40 1011.4
20260831030008 88 135 4.0 6.0 0.00 0.00 0.00 40 1011.4
20260831025006 89 112 6.0 8.0 0.00 0.00 0.00 39 1011.4
20260831024004 88 112 5.0 7.0 0.00 0.00 0.00 39 1011.4
20260831022503 88 157 5.0 6.0 0.00 0.00 0.00 39 1011.0
20260831021004 89 157 4.0 5.0 0.00 0.00 0.00 37 1011.0
20260831020506 89 157 4.0 5.0 0.00 0.00 0.00 37 1010.7
20260831011507 91 157 5.0 7.0 0.00 0.00 0.00 33 1009.4
20260831010007 93 157 6.0 8.0 0.00 0.00 0.00 31 1009.4
20260831001506 96 157 8.0 10.0 0.00 0.00 0.00 28 1008.3
20260831001008 97 157 9.0 13.0 0.00 0.00 0.00 28 1008.3
20260831000005 97 157 11.0 14.0 0.00 0.00 0.00 27 1008.3
20260830235508 97 157 10.0 14.0 0.00 0.00 0.00 28 1008.3
20260830235003 97 157 9.0 13.0 0.00 0.00 0.00 27 1008.3
20260830234505 97 157 9.0 14.0 0.00 0.00 0.00 28 1008.0
20260830232003 98 157 9.0 12.0 0.00 0.00 0.00 28 1008.0
20260830230005 99 180 10.0 13.0 0.00 0.00 0.00 25 1007.7
20260830225002 99 180 12.0 15.0 0.00 0.00 0.00 26 1007.7
20260830224505 99 157 12.0 22.0 0.00 0.00 0.00 26 1007.7
20260830223004 99 135 11.0 17.0 0.00 0.00 0.00 26 1007.7
20260830222506 99 180 16.0 20.0 0.00 0.00 0.00 26 1007.7
20260830222002 99 112 11.0 14.0 0.00 0.00 0.00 27 1007.7
20260830221504 99 180 13.0 19.0 0.00 0.00 0.00 26 1007.7
20260830215506 100 202 13.0 17.0 0.00 0.00 0.00 26 1007.7
20260830214006 99 180 11.0 14.0 0.00 0.00 0.00 26 1007.7
20260830212007 100 157 11.0 15.0 0.00 0.00 0.00 27 1007.7
20260830211503 100 112 8.0 16.0 0.00 0.00 0.00 27 1008.0
20260830211005 100 157 7.0 10.0 0.00 0.00 0.00 28 1008.0
20260830210508 99 180 14.0 16.0 0.00 0.00 0.00 28 1008.3
20260830204503 98 112 11.0 18.0 0.00 0.00 0.00 28 1008.3
20260830204005 98 180 6.0 10.0 0.00 0.00 0.00 30 1008.3
20260830203507 99 157 10.0 12.0 0.00 0.00 0.00 29 1008.3
20260830202505 99 180 11.0 17.0 0.00 0.00 0.00 28 1008.7
20260830194508 98 157 19.0 23.0 0.00 0.00 0.00 30 1009.4
20260830191507 96 202 10.0 12.0 0.00 0.00 0.00 32 1009.7
20260830191008 96 180 11.0 14.0 0.00 0.00 0.00 32 1009.7
20260830190504 97 180 8.0 11.0 0.00 0.00 0.00 33 1010.0
20260830185507 97 180 13.0 20.0 0.00 0.00 0.00 32 1010.4
20260830185004 96 157 20.0 24.0 0.00 0.00 0.00 32 1010.4
20260830184007 96 180 13.0 16.0 0.00 0.00 0.00 34 1010.4
20260830183503 96 180 16.0 19.0 0.00 0.00 0.00 34 1010.4
20260830180004 95 157 14.0 19.0 0.00 0.00 0.00 35 1011.0
20260830175007 95 202 11.0 14.0 0.00 0.00 0.00 36 1011.4
20260830174005 95 157 18.0 22.0 0.00 0.00 0.00 35 1011.7
20260830172505 95 180 12.0 16.0 0.00 0.00 0.00 37 1011.7
20260830164502 93 157 17.0 21.0 0.00 0.00 0.00 40 1012.4
20260830163506 93 180 18.0 21.0 0.00 0.00 0.00 43 1012.4
20260830163007 93 135 9.0 15.0 0.00 0.00 0.00 42 1012.4
20260830161506 92 202 14.0 17.0 0.00 0.00 0.00 44 1012.4
20260830160007 92 180 14.0 17.0 0.00 0.00 0.00 45 1012.7
20260830155005 91 202 14.0 18.0 0.00 0.00 0.00 47 1012.7
20260830154008 90 202 10.0 11.0 0.00 0.00 0.00 49 1013.1
20260830153006 90 180 15.0 19.0 0.00 0.00 0.00 49 1012.7
20260830151506 89 225 11.0 13.0 0.00 0.00 0.00 51 1013.4
20260830151008 89 180 14.0 17.0 0.00 0.00 0.00 52 1013.4
20260830150005 88 180 14.0 17.0 0.00 0.00 0.00 52 1013.4
20260830144505 87 202 11.0 12.0 0.00 0.00 0.00 54 1013.8
20260830144007 87 202 10.0 12.0 0.00 0.00 0.00 54 1013.8
20260830143503 86 202 13.0 15.0 0.00 0.00 0.00 56 1013.8
20260830142507 86 202 13.0 16.0 0.00 0.00 0.00 58 1013.8
20260830141503 85 202 13.0 16.0 0.00 0.00 0.00 59 1014.1
20260830141005 85 180 15.0 18.0 0.00 0.00 0.00 59 1014.1
20260830140507 85 202 12.0 15.0 0.00 0.00 0.00 61 1014.4
20260830135007 84 202 9.0 11.0 0.00 0.00 0.00 63 1014.4
20260830134503 83 202 10.0 13.0 0.00 0.00 0.00 64 1014.4
20260830134005 83 202 7.0 8.0 0.00 0.00 0.00 65 1014.4
20260830133507 82 202 10.0 12.0 0.00 0.00 0.00 67 1014.8
20260830133003 82 180 9.0 10.0 0.00 0.00 0.00 68 1014.8
20260830132007 81 180 6.0 7.0 0.00 0.00 0.00 71 1015.1
20260830130002 79 180 4.0 5.0 0.00 0.00 0.00 74 1015.4
20260830125504 78 157 4.0 5.0 0.00 0.00 0.00 75 1015.8
20260830124502 77 135 2.0 3.0 0.00 0.00 0.00 76 1015.8
20260830124004 77 135 3.0 4.0 0.00 0.00 0.00 76 1015.8